Ely, MN

10:09 AM CDT on April 29, 2017 (GMT -0500)
Ely Municipal

Weather History for KELO - September, 2013

Change the Weather History Date:

Monday, September 16, 2013

  Actual Average Record
Temperature  
Mean Temperature 45 °F -  
Max Temperature 62 °F 64 °F 78 °F (1998)
Min Temperature 28 °F 43 °F 23 °F (2011)
Degree Days  
Heating Degree Days 20    
Moisture  
Dew Point 35 °F    
Average Humidity 71    
Maximum Humidity 100    
Minimum Humidity 36    
Precipitation  
Precipitation 0.02 in - - ()
Sea Level Pressure  
Sea Level Pressure 30.33 in    
Wind  
Wind Speed 2 mph (SSW)    
Max Wind Speed 8 mph    
Max Gust Speed -    
Visibility 10 miles    
Events      
Averages and records for this station are not official NWS values.
T = Trace of Precipitation, MM = Missing Value Source: NWS Daily Summary

Daily Weather History Graph

Daily Weather History Graph

Search for Another Location

Airport or City:

Trip Planner

Search our weather history database for the weather conditions in past years. The results will help you decide how hot, cold, wet, or windy it might be!

Date:

Astronomy

Sep. 16, 2013 Rise Set
Actual Time 6:46 AM CDT 7:16 PM CDT
Civil Twilight 6:15 AM CDT 7:47 PM CDT
Nautical Twilight 5:38 AM CDT 8:24 PM CDT
Astronomical Twilight 4:59 AM CDT 9:02 PM CDT
Moon 5:34 PM CDT (9/16) 3:21 AM CDT (9/16)
Length of Visible Light 13h 32m
Length of Day
12h 30m
Waxing Gibbous, 90% of the Moon is Illuminated
Sep 16
Waxing Gibbous
Sep 19
Full
Sep 26
Last Quarter
Oct 4
New
Oct 11
First Quarter

Hourly Weather History & Observations

Time (CDT) Temp. Windchill Dew Point Humidity Pressure Visibility Wind Dir Wind Speed Gust Speed Precip Events Conditions
12:12 AM 35.6 °F - 33.8 °F 93% 30.33 in 10.0 mi Calm Calm - 0.01 in   Clear
12:33 AM 33.8 °F - 33.8 °F 100% 30.33 in 10.0 mi Calm Calm - 0.01 in   Clear
12:53 AM 33.8 °F - 32.0 °F 93% 30.33 in 10.0 mi Calm Calm - 0.01 in   Clear
1:12 AM 30.2 °F - 30.2 °F 100% 30.33 in 10.0 mi Calm Calm - N/A   Clear
1:33 AM 32.0 °F - 30.2 °F 93% 30.34 in 10.0 mi Calm Calm - N/A   Clear
1:53 AM 32.0 °F - 30.2 °F 93% 30.34 in 10.0 mi Calm Calm - N/A   Clear
2:12 AM 30.2 °F - 30.2 °F 100% 30.35 in 10.0 mi Calm Calm - N/A   Clear
2:33 AM 30.2 °F - 30.2 °F 100% 30.35 in 10.0 mi Calm Calm - N/A   Clear
2:53 AM 30.2 °F - 30.2 °F 100% 30.36 in 10.0 mi Calm Calm - N/A   Clear
3:13 AM 30.2 °F - 30.2 °F 100% 30.36 in 10.0 mi Calm Calm - N/A   Clear
3:33 AM 30.2 °F - 30.2 °F 100% 30.36 in 10.0 mi Calm Calm - N/A   Clear
3:52 AM 30.2 °F - 28.4 °F 93% 30.36 in 10.0 mi Calm Calm - N/A   Clear
4:13 AM 30.2 °F - 28.4 °F 93% 30.36 in 10.0 mi Calm Calm - 0.01 in   Clear
4:33 AM 30.2 °F - 28.4 °F 93% 30.37 in 7.0 mi Calm Calm - 0.01 in   Clear
4:52 AM 28.4 °F - 28.4 °F 100% 30.36 in 10.0 mi Calm Calm - 0.01 in   Clear
5:13 AM 28.4 °F - 28.4 °F 100% 30.37 in 10.0 mi Calm Calm - N/A   Clear
5:33 AM 28.4 °F - 28.4 °F 100% 30.37 in 2.5 mi Calm Calm - N/A   Scattered Clouds
5:52 AM 28.4 °F - 28.4 °F 100% 30.37 in 1.5 mi Calm Calm - N/A   Mostly Cloudy
6:13 AM 28.4 °F - 28.4 °F 100% 30.38 in 1.2 mi Calm Calm - N/A   Mostly Cloudy
6:33 AM 28.4 °F - 28.4 °F 100% 30.38 in 7.0 mi Calm Calm - N/A   Clear
6:52 AM 28.4 °F - 28.4 °F 100% 30.39 in 10.0 mi Calm Calm - N/A   Clear
7:13 AM 28.4 °F - 28.4 °F 100% 30.39 in 10.0 mi Calm Calm - N/A   Clear
7:33 AM 30.2 °F - 28.4 °F 93% 30.40 in 10.0 mi Calm Calm - N/A   Clear
7:52 AM 32.0 °F - 32.0 °F 100% 30.39 in 10.0 mi Calm Calm - N/A   Clear
8:13 AM 37.4 °F - 35.6 °F 93% 30.39 in 10.0 mi Calm Calm - N/A   Clear
8:33 AM 41.0 °F - 37.4 °F 87% 30.39 in 10.0 mi Calm Calm - N/A   Clear
8:52 AM 42.8 °F - 37.4 °F 81% 30.39 in 10.0 mi Calm Calm - N/A   Clear
9:13 AM 44.6 °F - 39.2 °F 81% 30.40 in 10.0 mi Calm Calm - N/A   Clear
9:33 AM 46.4 °F - 41.0 °F 81% 30.41 in 10.0 mi Calm Calm - N/A   Clear
9:52 AM 50.0 °F - 39.2 °F 66% 30.41 in 10.0 mi Calm Calm - N/A   Clear
10:13 AM 51.8 °F - 39.2 °F 62% 30.40 in 10.0 mi South 3.5 mph - N/A   Clear
10:33 AM 53.6 °F - 39.2 °F 58% 30.40 in 10.0 mi WSW 3.5 mph - N/A   Clear
10:52 AM 53.6 °F - 37.4 °F 54% 30.40 in 10.0 mi South 6.9 mph - N/A   Clear
11:13 AM 55.4 °F - 35.6 °F 47% 30.39 in 10.0 mi WSW 3.5 mph - N/A   Clear
11:33 AM 55.4 °F - 35.6 °F 47% 30.39 in 10.0 mi SSW 3.5 mph - N/A   Clear
11:52 AM 57.2 °F - 35.6 °F 44% 30.38 in 10.0 mi South 3.5 mph - N/A   Clear
12:13 PM 57.2 °F - 35.6 °F 44% 30.38 in 10.0 mi SSW 8.1 mph - N/A   Clear
12:33 PM 57.2 °F - 35.6 °F 44% 30.38 in 10.0 mi SW 6.9 mph - N/A   Clear
12:52 PM 57.2 °F - 35.6 °F 44% 30.37 in 10.0 mi WNW 3.5 mph - N/A   Clear
1:13 PM 60.8 °F - 35.6 °F 39% 30.37 in 10.0 mi South 4.6 mph - N/A   Clear
1:33 PM 60.8 °F - 33.8 °F 36% 30.36 in 10.0 mi WSW 8.1 mph - N/A   Clear
1:52 PM 59.0 °F - 35.6 °F 42% 30.35 in 10.0 mi WSW 4.6 mph - N/A   Clear
2:13 PM 60.8 °F - 35.6 °F 39% 30.34 in 10.0 mi SSW 4.6 mph - N/A   Clear
2:33 PM 62.6 °F - 37.4 °F 39% 30.33 in 10.0 mi SW 4.6 mph - N/A   Clear
2:52 PM 60.8 °F - 37.4 °F 42% 30.33 in 10.0 mi South 3.5 mph - N/A   Clear
3:13 PM 62.6 °F - 37.4 °F 39% 30.32 in 10.0 mi West 4.6 mph - N/A   Clear
3:32 PM 62.6 °F - 37.4 °F 39% 30.31 in 10.0 mi SW 5.8 mph - N/A   Clear
3:53 PM 62.6 °F - 37.4 °F 39% 30.30 in 10.0 mi SW 5.8 mph - N/A   Clear
4:12 PM 62.6 °F - 37.4 °F 39% 30.30 in 10.0 mi SSW 6.9 mph - N/A   Clear
4:33 PM 62.6 °F - 37.4 °F 39% 30.29 in 10.0 mi SSW 4.6 mph - N/A   Clear
4:53 PM 62.6 °F - 39.2 °F 42% 30.28 in 10.0 mi SW 4.6 mph - N/A   Clear
5:12 PM 62.6 °F - 37.4 °F 39% 30.28 in 10.0 mi SW 5.8 mph - N/A   Clear
5:33 PM 62.6 °F - 39.2 °F 42% 30.28 in 10.0 mi SSW 5.8 mph - N/A   Clear
5:53 PM 62.6 °F - 39.2 °F 42% 30.27 in 10.0 mi SSW 5.8 mph - N/A   Clear
6:13 PM 60.8 °F - 39.2 °F 45% 30.26 in 10.0 mi SSW 5.8 mph - N/A   Clear
6:32 PM 59.0 °F - 41.0 °F 51% 30.26 in 10.0 mi South 5.8 mph - N/A   Clear
6:53 PM 57.2 °F - 42.8 °F 59% 30.26 in 10.0 mi South 4.6 mph - N/A   Clear
7:13 PM 55.4 °F - 42.8 °F 63% 30.25 in 10.0 mi South 3.5 mph - N/A   Clear
7:32 PM 53.6 °F - 42.8 °F 67% 30.25 in 10.0 mi South 4.6 mph - N/A   Clear
7:53 PM 51.8 °F - 42.8 °F 71% 30.25 in 10.0 mi SSE 8.1 mph - N/A   Clear
8:13 PM 51.8 °F - 39.2 °F 62% 30.25 in 10.0 mi South 5.8 mph - N/A   Clear
8:32 PM 50.0 °F - 39.2 °F 66% 30.25 in 10.0 mi South 5.8 mph - N/A   Clear
8:53 PM 50.0 °F - 39.2 °F 66% 30.25 in 10.0 mi South 5.8 mph - N/A   Clear
9:13 PM 48.2 °F - 39.2 °F 71% 30.25 in 10.0 mi South 6.9 mph - N/A   Clear
9:32 PM 48.2 °F - 39.2 °F 71% 30.25 in 10.0 mi South 6.9 mph - N/A   Clear
9:53 PM 46.4 °F 44.3 °F 39.2 °F 76% 30.25 in 10.0 mi South 4.6 mph - N/A   Clear
10:13 PM 46.4 °F 44.3 °F 39.2 °F 76% 30.25 in 10.0 mi South 4.6 mph - N/A   Clear
10:32 PM 46.4 °F 42.9 °F 39.2 °F 76% 30.25 in 10.0 mi South 6.9 mph - N/A   Clear
10:53 PM 44.6 °F 41.4 °F 39.2 °F 81% 30.25 in 10.0 mi South 5.8 mph - N/A   Clear
11:13 PM 44.6 °F 40.7 °F 39.2 °F 81% 30.25 in 10.0 mi SSE 6.9 mph - N/A   Clear
11:32 PM 44.6 °F 40.7 °F 39.2 °F 81% 30.25 in 10.0 mi SSE 6.9 mph - N/A   Clear
11:53 PM 44.6 °F 40.7 °F 41.0 °F 87% 30.25 in 10.0 mi SSE 6.9 mph - N/A   Clear